Regional Weather Roundup
Issued by NWS Nashville, TN

Home | Current Version | Previous Version | Text Only | Print | Product List | Glossary On
Versions: 1 2 3 4 5 6 7 8 9 10 11 12 13 14 15 16 17 18 19 20 21 22 23 24 25 26 27 28
000
ASUS44 KOHX 042110
RWROHX
MIDDLE TENNESSEE HOURLY WEATHER ROUNDUP
NATIONAL WEATHER SERVICE NASHVILLE TN
400 PM CDT WED MAY 04 2016

NOTE: "FAIR" INDICATES FEW OR NO CLOUDS BELOW 12,000 FEET WITH
NO SIGNIFICANT WEATHER AND/OR OBSTRUCTIONS TO VISIBILITY.

* THESE REPORTS ARE NOT UNDER NWS QUALITY CONTROL AND MAY NOT
  REPORT WEATHER SUCH AS PRECIPITATION AND FOG.


TNZ005>011-023>034-057-059-062>066-078-080-042200
...NORTHERN MIDDLE TENNESSEE...

CITY           SKY/WX    TMP DP  RH WIND       PRES   REMARKS
CLARKSVILLE    TSTM      61  50  67 NW23G33   29.74R
CROSSVILLE     RAIN      54  49  83 NW5       29.75R
NASHVILLE      PTSUNNY   67  51  56 W13G25    29.71F
SMYRNA         MOSUNNY   65  56  72 NW10      29.73S
SPARTA         CLOUDY    55  54  94 CALM      29.72F
$$
TNZ056-058-060-061-075>077-079-093>097-042200
...SOUTHERN MIDDLE TENNESSEE...

CITY           SKY/WX    TMP DP  RH WIND       PRES   REMARKS
COLUMBIA       PTSUNNY  N/A N/A N/A VRB6      29.72F
FAYETTEVILLE   SUNNY     70  46  43 W14G23    29.69F
MCMINNVILLE    CLOUDY    55  54  94 N3        29.73R
SHELBYVILLE    PTSUNNY   57  57 100 NW6       29.75R
TULLAHOMA      CLOUDY    54  54 100 N13       29.75R
WINCHESTER     PTSUNNY   68  46  45 SW12      29.68F
$$


...KEY TO REMARKS...
VSB - VISIBILITY IN MILES
WCI - WIND CHILL INDEX
HX  - HEAT INDEX





USA.gov is the U.S. government's official web portal to all federal, state and local government web resources and services.